Aéroport int. Stanfield de Halifax, Nouvelle Écosse

Conditions des dernières 24 heures

Ce tableau est un sommaire des conditions météo couvrant les dernières 24 heures. Ce sommaire inclut les paramètres suivants: température, humidité, point de rosée, direction et vitesse du vent, pression barométrique, facteur de refroidissement éolien ou indice humidex.
Date / Heure
(HAA)
Conditions Temp (°C) Humidite (%) Point de rose (°C) Vent (km/h) Pression (kPa) Vis (km) Humidex
25 juillet 2014
19:00 Généralement ensoleillé 23   56 13 NNO 14 101,0 24 26
18:00 Partiellement nuageux 23   59 14 NO 14 101,0 24 26
17:00 Partiellement nuageux 22 63 15 NO 18 100,9 24 26
16:00 Généralement nuageux 22 63 15 NNO 19 100,9 24 26
15:00 Généralement nuageux 22 65 16 NNO 9 100,9 24 27
14:00 Généralement nuageux 22 68 16 NNO 14 100,9 24 26
13:00 Généralement nuageux 21 70 16 N 15 101,0 24 26
12:00 Généralement nuageux 20 72 15 NE 11 101,0 24 *
11:00 Généralement nuageux 21 73 16 NNE 16 101,0 24 25
10:00 Généralement nuageux 18 88 16 N 16 101,0 24 *
9:00 Généralement nuageux 17   95 16 N 16 101,0 24 *
8:00 Brume 17   98 16 N 18 101,0 10 *
7:00 Brume 17   98 16 N 16 101,0 3 *
6:00 Bruine faible 17   99 16 NNO 15 100,9 2 *
5:00 Bruine faible 17   99 17 N 16 100,9 4 *
4:00 Faible averse de pluie 17   99 17 N 14 100,8 3 *
3:00 Faible averse de pluie 17   99 17 NNO 13 100,9 5 *
2:00 Faible averse de pluie 17   99 17 N 18 100,9 2 *
1:00 Brouillard 18 99 18 N 11 100,9 0.8 *
0:00 Brouillard 18 98 18 N 9 100,9 0.6 *
24 juillet 2014
23:00 Bruine faible 19 98 19 NNE 16 100,9 3 *
22:00 Pluie faible 20 97 19 NE 9 100,9 3 *
21:00 Généralement nuageux 21 89 19 SE 5 100,8 19 27
20:00 Généralement nuageux 22 88 20 NO 9 100,8 24 29
19:00 Généralement nuageux 23   80 19 SSO 11 100,8 24 29
N.D.
non disponible
 ↑ 
température la plus haute
 ↓ 
température la plus basse
*
Valeur non significative.

Si vous désirez plus de données historiques sur les conditions météo, s.v.p. visitez Données climatologiques en ligne.